Weather Roundup
Issued by NWS Chicago, IL

Home | Current Version | Previous Version | Text Only | Print | Product List | Glossary On
Versions: 1 2 3 4 5 6 7 8 9 10 11 12 13 14 15 16 17 18 19 20 21 22 23 24 25 26 27 28 29 30 31 32 33 34 35 36 37 38 39 40 41 42 43 44 45 46 47 48 49 50
000
NZUS59 KLOT 262308
HRRLOT

CHICAGO AREA WEATHER ROUNDUP
NATIONAL WEATHER SERVICE CHICAGO/ROMEOVILLE IL
600 PM CDT SUN MAR 26 2017

NOTE: "FAIR" INDICATES FEW OR NO CLOUDS BELOW 12,000 FEET WITH NO
SIGNIFICANT WEATHER AND/OR OBSTRUCTIONS TO VISIBILITY.

* THESE STATIONS ARE NOT UNDER NWS QUALITY CONTROL. THEY ALSO MAY NOT
  REPORT WEATHER SUCH AS PRECIPITATION OR FOG.

ILZ005-006-012>014-019>023-270000-
NORTHEAST ILLINOIS

CITY           SKY/WX    TMP DP  RH WIND       PRES   REMARKS
OHARE          CLOUDY    58  51  78 W9        29.82R
MIDWAY         CLOUDY    57  51  80 SW8       29.83R
AURORA         CLOUDY    55  52  89 SW8       29.83R FOG
LANSING*       CLOUDY    56  52  85 SW12      29.84R
JOLIET*        CLOUDY    57  53  86 SW8       29.84S
WAUKEGAN       CLOUDY    48  47  96 E3        29.81S
DUPAGE AIRPORT CLOUDY    56  53  90 SW8       29.82R
WHEELING       CLOUDY    57  53  86 SW7       29.83R
KANKAKEE*      CLOUDY    56  51  80 SW13      29.86R
MORRIS*        CLOUDY    55  51  87 CALM      29.84R
LEWIS AIRPORT* CLOUDY    54  54  97 SW9       29.84R
$$

WIZ051-052-058>065-066-070>072-270000-
SOUTHEAST WISCONSIN

CITY           SKY/WX    TMP DP  RH WIND       PRES   REMARKS
MILWAUKEE      CLOUDY    43  40  89 NE5       29.83R FOG
KENOSHA*       CLOUDY    51  49  92 CALM      29.82R FOG
RACINE*        CLOUDY    44  41  89 N6        29.84R FOG
WEST BEND      DRIZZLE   43  43 100 CALM      29.83S
$$

INZ001>003-010>013-019-020-270000-
NORTHWEST INDIANA

CITY           SKY/WX    TMP DP  RH WIND       PRES   REMARKS
GARY*          CLOUDY    59  48  67 SW14      29.84R
MICHIGAN CITY* NOT AVBL
RENSSELAER*    NOT AVBL
VALPARAISO     PTSUNNY   59  53  80 W13       29.84R
$$

LMZ740>746-270000-
SOUTHERN LAKE MICHIGAN

STATION/POSITION TIME  SKY/WX   TEMP WIND        PRES    VSBY
                                AIR  DIR/SP/G
                 (UTC)          (F)  (DEG/KT/KT) (MB)    (MI)
HARRISON CRIB    2240            59  220/ 10/ 11   N/A
BURNHAM HARBOR   2300            57  210/  4/ 12   N/A
CALUMET HARBOR   2236            58  210/  7/ 11 1009.5R
BURNS HARBOR     2224            56  260/ 12/ 16 1010.5R
MICHIGAN CITY    2240            53   50/  2/  3   N/A
$$

ABBREVIATIONS USED IN REMARKS
   TC - TEMPERATURE IN CELSIUS
  WCI - WIND CHILL INDEX
   HX - HEAT INDEX
  VSB - VISIBILITY
$$




USA.gov is the U.S. government's official web portal to all federal, state and local government web resources and services.